Location: Baix
(44.7118°N, 4.7648°E)
Time: 06:31:27
(UTC+00:00)

Vanguard 1 - Pass Details

Date: 01 December 2020
Orbit: 648 x 3834 km, 34.3° (Epoch: 21 January)

Event Time Altitude Azimuth Distance (km) Brightness Sun altitude
Rises 09:16:53 0° 269° (W) 4,591 13.2 16.8°
Reaches altitude 10° 09:19:52 10° 259° (WSW) 3,971 13.0 17.1°
Maximum altitude 09:29:14 32° 202° (SSW) 3,567 13.6 17.9°
Drops below altitude 10° 09:44:02 10° 149° (SSE) 6,291 16.5 19.1°
Sets 09:50:32 0° 141° (SE) 7,670 16.1 19.6°
